Regional Weather Roundup
Issued by NWS State College, PA

Home | Current Version | Previous Version | Text Only | Print | Product List | Glossary On
Versions: 1 2 3 4 5 6 7 8 9 10 11 12 13 14 15 16 17 18 19 20 21 22 23 24 25 26 27 28 29 30 31 32 33 34 35 36 37 38 39 40 41 42 43 44 45 46 47 48 49 50
000
ASUS41 KCTP 251910
RWRCTP

REGIONAL WEATHER ROUNDUP
NATIONAL WEATHER SERVICE STATE COLLEGE PA
300 PM EDT SAT OCT 25 2014

Note: "fair" indicates few or no clouds below 12,000 feet with no
significant weather and/or obstructions to visibility.

* = STATION THAT DOES NOT REPORT PRECIPITATION /E.G. RAIN...SNOW...ETC/
    THUNDER OR FOG.

PAZ002>004-007>009-013>016-020>023-029>032-252000-
WESTERN PENNSYLVANIA

CITY           SKY/WX    TMP DP  RH WIND       PRES   REMARKS
ERIE           CLOUDY    60  52  74 W21G31    29.73F
MEADVILLE      CLOUDY    64  49  57 W18G24    29.74F
FRANKLIN*      CLOUDY    63  46  55 SW15G25   29.77F
NEW CASTLE       N/A     67  51  56 SW10G20   29.78F
BEAVER COUNTY  CLOUDY    64  50  59 SW15      29.79F
BUTLER*        CLOUDY    64  48  55 W18G24    29.81S
PITTSBURGH INT PTSUNNY   66  48  52 SW13G31   29.79F
PITTSBURGH     MOSUNNY   66  44  45 SW17G26   29.80F
INDIANA*       CLOUDY    63  50  63 W13G20    29.83F
LATROBE        PTSUNNY   64  52  63 SW12G23   29.83F
WASHINGTON CO* SUNNY     66  48  52 SW14G25   29.84F
$$

PAZ004>006-010>012-017>019-024>028-033>037-041-042-045-046-049>053-252000-
CENTRAL PENNSYLVANIA

CITY           SKY/WX    TMP DP  RH WIND       PRES   REMARKS
BRADFORD       CLOUDY    59  45  59 SW9G18    29.72F
DUBOIS         CLOUDY    59  48  67 SW16      29.75F
CLEARFIELD     CLOUDY    61  47  59 SW17G23   29.75F
JOHNSTOWN      PTSUNNY   59  45  59 SW15G25   29.81F
ALTOONA        PTSUNNY   64  46  52 W13G24    29.79F
STATE COLLEGE  SUNNY     66  48  52 W20G28    29.74F
WILLIAMSPORT   SUNNY     70  44  39 W13G21    29.68F
SELINSGROVE    SUNNY     70  45  40 SW9       29.72F
FT INDIANTOWN  SUNNY     68  46  44 W13       29.76F
CAPITAL CITY   SUNNY     69  44  40 W13       29.76F
HARRISBURG     MOSUNNY   68  44  42 W8        29.75F
YORK           SUNNY     69  42  37 W14G20    29.78F
$$

PAZ038>040-043-044-047-048-054-055-060>062-067>071-252000-
EASTERN PENNSYLVANIA

CITY           SKY/WX    TMP DP  RH WIND       PRES   REMARKS
SCRANTON       SUNNY     64  42  44 SW12G23   29.70F
MOUNT POCONO   MOSUNNY   59  41  51 SW14G22   29.73F
ALLENTOWN      SUNNY     68  41  37 W15G21    29.73F
QUAKERTOWN*    CLEAR     66  45  45 W9        29.75F
READING        SUNNY     68  43  40 W15       29.74F
LANCASTER      SUNNY     67  42  40 W14       29.76F
COATESVILLE    CLEAR     66  45  45 W12G18    29.78F
POTTSTOWN      SUNNY     67  43  41 W10G20    29.76F
BLUE BELL      SUNNY     68  45  42 SW12G18   29.75F
DOYLESTOWN     SUNNY     66  42  41 W12G20    29.74F
WILLOW GROVE   NOT AVBL
NORTH PHILA    SUNNY     69  41  36 W17G23    29.77F
PHILADELPHIA   MOSUNNY   70  44  39 W16       29.76F
$$



USA.gov is the U.S. government's official web portal to all federal, state and local government web resources and services.